Lapse_Rate
1.2 1.1 1.1 1.7 1.9 2.3 3.0 3.5 4.1 4.3 2.8 2.4 3.2 3.2 3.9 4.5 5.0 4.8 4.6 5.3 5.3 5.1 5.1 4.1 4.1 4.6 4.9 5.4 5.4 5.6 5.7 5.1 4.8 5.0 5.0 5.5 5.9 5.7
2.3 2.0 1.8 2.0 2.0 2.0 2.3 2.9 3.2 4.0 4.4 2.2 3.0 2.9 3.9 5.2 6.0 5.6 4.7 5.1 4.6 4.8 5.4 5.1 3.9 3.8 4.3 4.5 4.7 4.5 4.3 4.5 4.6 4.6 4.9 5.6 5.7 5.6
2.9 2.9 2.7 3.0 2.3 2.3 2.5 2.7 2.9 3.3 4.2 3.9 2.4 2.6 2.6 2.9 3.8 5.2 4.9 4.2 4.0 4.5 4.6 4.9 4.7 4.3 3.8 4.2 4.4 4.3 4.3 4.1 3.9 4.3 4.5 4.7 4.8 4.7
3.6 3.5 3.1 4.5 3.4 2.9 2.9 3.0 3.0 2.9 3.9 5.1 4.5 2.1 2.8 2.8 2.3 2.4 3.9 5.2 4.4 4.4 5.0 4.7 4.1 4.2 4.2 4.1 4.5 4.5 4.1 4.0 3.9 3.5 3.7 4.0 4.1 4.2
3.6 3.6 3.7 3.7 3.5 3.2 3.3 3.2 3.1 4.7 3.4 4.0 5.3 2.9 2.3 2.2 3.0 2.4 2.3 2.4 3.9 4.9 4.9 5.2 4.6 4.3 4.4 4.2 4.4 4.5 4.6 3.9 3.6 4.0 4.1 3.9 4.0 4.4
3.4 3.6 3.7 3.9 4.1 3.9 4.1 3.7 4.4 3.7 3.6 3.7 4.6 4.8 3.4 3.1 3.0 3.4 3.2 2.1 3.0 4.5 4.5 4.8 4.3 4.0 4.1 4.5 4.4 4.3 4.3 4.5 4.4 3.9 3.7 3.7 3.6 3.7
3.3 4.1 4.8 5.1 5.6 6.4 7.1 5.4 5.1 5.3 5.6 5.3 4.8 4.0 4.3 4.6 3.7 3.9 3.7 3.4 2.5 2.3 2.6 2.0 2.1 2.4 2.4 3.8 3.9 4.1 4.0 4.1 4.0 4.4 4.3 3.8 3.5 3.5
3.5 3.7 3.8 4.7 5.1 6.4 7.1 7.5 7.8 7.3 7.0 6.6 5.8 5.2 5.3 4.7 4.1 4.2 4.9 4.5 4.5 3.0 2.5 2.5 2.7 1.6 1.9 2.5 3.0 4.0 4.4 4.3 4.1 3.9 3.9 4.0 3.9 3.7
3.6 4.0 4.8 6.3 5.5 4.9 6.0 6.9 6.8 7.5 7.9 7.8 7.3 6.7 6.4 6.3 6.7 6.4 5.6 5.4 5.4 4.8 3.7 3.7 2.2 2.4 2.3 3.9 4.9 5.1 4.9 4.6 4.4 4.2 3.9 3.8 3.7 3.8
4.1 4.3 4.5 5.0 5.1 6.0 6.0 5.5 5.4 5.6 6.2 7.1 7.7 7.8 7.6 7.7 7.5 7.5 7.5 7.0 5.6 4.5 4.3 4.9 2.4 2.5 2.4 3.2 4.5 5.7 5.5 5.2 4.7 4.4 4.1 4.1 4.0 4.0
5.4 5.1 5.1 5.3 6.6 8.4 7.5 6.1 5.9 5.7 7.0 7.3 7.5 7.6 7.5 7.9 8.0 7.6 6.5 6.0 5.8 5.1 3.9 4.3 2.9 2.6 2.7 2.6 3.5 6.1 6.1 5.4 5.0 4.9 4.7 4.7 4.5 4.5
5.1 5.3 7.3 7.5 8.7 8.9 8.1 6.4 6.6 6.5 5.8 5.7 5.0 5.5 6.4 6.1 6.6 7.2 6.7 5.9 6.4 5.9 3.9 5.8 3.0 3.6 3.9 2.5 2.5 3.6 4.4 5.4 5.2 5.2 5.3 5.1 5.1 3.5
6.3 6.1 6.2 8.5 8.8 8.7 9.1 7.3 6.6 7.3 7.1 6.7 6.1 6.2 6.3 5.7 5.3 5.5 6.9 7.0 6.2 6.7 6.1 5.4 3.5 2.9 3.0 2.2 2.7 2.6 2.9 3.6 4.2 5.5 6.0 6.1 5.9 4.5
6.3 6.2 5.9 8.1 8.9 9.3 9.0 8.9 9.2 9.0 6.7 6.0 5.2 5.9 5.9 5.3 5.3 5.4 6.1 6.2 6.5 6.3 6.4 5.9 4.5 4.4 4.0 3.7 4.5 3.2 3.8 4.0 4.0 3.7 3.6 4.9 6.4 6.4
6.9 7.4 8.7 8.8 8.7 8.1 8.2 8.8 9.3 6.9 6.2 5.8 6.0 6.0 5.7 5.6 5.1 5.0 4.1 4.9 5.2 5.6 6.8 6.2 5.9 5.7 6.0 6.0 5.5 4.1 4.3 3.9 3.6 3.9 3.9 3.6 3.6 3.6
7.6 6.5 7.7 8.4 8.7 8.3 7.8 7.2 6.8 6.5 6.1 5.9 6.0 6.2 5.4 3.7 4.9 3.9 5.4 5.0 5.9 5.5 4.7 4.7 4.5 4.7 5.5 5.6 5.0 4.6 4.3 5.0 2.9 3.3 4.2 4.6 4.3 4.3
8.3 7.6 6.2 5.4 6.0 6.1 6.0 5.5 5.6 5.5 5.7 5.8 5.4 5.6 5.8 5.5 5.3 5.2 5.8 6.1 6.2 5.9 5.0 4.5 4.9 5.1 5.4 5.5 5.9 5.7 5.7 4.7 4.7 4.9 4.8 4.1 4.4 5.1
8.3 6.8 6.7 6.4 6.3 6.4 6.5 6.4 5.9 6.6 5.9 5.6 5.2 5.3 5.9 5.6 4.8 4.5 5.9 6.1 6.5 6.7 6.2 4.8 5.4 5.4 5.0 4.5 5.3 5.4 5.1 5.4 4.9 5.3 5.5 5.1 4.2 3.6
6.5 6.4 6.5 6.6 6.8 6.9 7.0 7.1 6.5 6.2 6.0 4.9 5.1 5.2 6.2 7.0 6.9 6.7 6.7 6.2 6.5 7.0 5.6 5.0 5.5 5.5 5.8 5.3 3.8 5.9 4.3 3.6 4.7 5.0 5.2 5.5 5.3 4.3
6.0 6.1 6.3 6.4 6.5 6.5 6.4 5.8 5.3 5.2 4.9 5.4 5.2 5.0 4.7 6.0 6.5 6.9 6.9 6.7 7.3 7.0 5.9 5.4 5.8 5.7 5.9 4.3 2.9 2.8 6.5 4.7 4.2 4.6 4.7 4.4 5.5 6.3
6.4 6.5 6.7 7.0 6.4 6.7 6.4 6.1 5.6 4.6 4.2 3.3 3.2 4.3 4.8 5.1 6.0 6.8 7.0 8.1 7.8 6.8 6.6 6.5 5.3 6.6 3.2 3.0 5.1 4.4 5.3 7.1 5.8 3.6 3.5 3.3 3.6 3.1
6.6 6.8 6.6 6.5 6.4 6.3 6.3 6.3 6.5 5.3 4.7 4.5 4.1 3.8 4.3 5.4 6.2 6.7 6.7 6.8 6.1 6.1 6.1 5.0 4.7 4.0 3.2 5.2 4.6 1.6 2.5 3.8 6.3 7.6 7.5 6.8 3.7 3.1
7.1 7.1 6.9 6.8 6.4 6.5 6.0 6.3 5.5 5.2 4.2 3.9 4.6 5.3 4.4 3.7 4.5 5.3 6.5 6.6 6.1 3.0 2.8 2.7 3.6 3.8 5.6 4.8 5.9 4.7 2.0 2.1 3.3 3.7 4.9 7.1 7.8 7.6
Wind_Speed
5 4 3 3 3 3 2 3 3 2 3 3 2 2 5 9 11 9 9 10 11 12 13 10 9 9 8 7 4 4 2 2 4 4 3 1 3 3
4 5 4 3 4 3 3 3 3 4 3 3 2 3 5 8 13 12 12 11 11 11 13 11 10 10 9 7 5 2 1 3 3 3 2 2 1 4
5 5 6 5 4 4 3 3 4 4 5 7 4 2 4 4 7 14 13 11 10 12 13 12 10 9 10 10 7 5 4 2 0 2 3 4 4 3
6 5 7 3 6 5 4 5 5 5 4 10 8 3 5 5 5 5 6 11 12 14 13 13 12 12 11 11 11 8 5 4 1 2 3 3 3 3
5 5 6 5 5 4 4 5 4 5 4 4 7 3 4 3 4 5 4 5 10 15 17 16 15 14 15 13 11 10 9 7 6 2 3 3 3 2
5 6 6 6 6 6 6 6 5 4 4 4 5 6 4 4 3 4 6 3 4 7 13 14 15 12 14 15 14 12 12 11 8 6 5 4 3 3
6 6 6 7 11 11 6 5 5 4 3 5 6 3 3 4 5 3 4 4 3 4 3 3 4 6 9 12 14 14 12 13 9 7 6 5 4 3
6 7 6 9 8 14 15 13 11 7 9 8 8 9 10 5 4 4 4 3 4 3 3 4 4 4 5 11 13 14 14 12 10 8 7 6 5 4
6 6 7 6 8 6 11 15 13 16 15 9 12 10 12 10 9 9 5 5 4 4 3 4 3 4 6 10 14 14 15 13 11 10 9 9 8 7
7 7 7 8 8 9 6 7 8 7 7 7 8 8 10 10 11 10 10 8 5 4 3 6 2 4 3 10 13 15 16 14 13 11 11 11 10 10
7 7 6 7 14 19 11 8 8 8 11 14 17 19 21 21 18 9 8 8 9 4 4 4 4 3 2 2 7 11 15 12 11 11 11 11 12 10
6 6 11 10 18 20 10 6 9 9 6 7 5 8 11 12 18 10 8 7 8 4 4 7 3 4 2 2 2 5 6 9 10 12 15 14 11 6
6 4 4 13 16 18 19 6 7 10 10 7 6 7 7 8 6 5 7 8 8 9 4 4 2 2 2 1 1 2 3 2 5 10 14 12 9 7
5 5 5 13 15 19 16 17 20 18 5 5 4 7 8 8 8 5 8 8 13 13 11 6 2 3 3 2 2 0 1 2 2 2 4 6 8 8
3 10 20 19 20 14 15 19 20 6 6 6 7 7 7 8 6 5 5 9 11 16 13 10 8 6 5 5 3 2 3 3 3 3 2 2 2 3
11 9 12 17 20 15 13 10 6 6 6 6 7 7 5 3 7 4 5 4 6 6 4 7 5 4 3 3 3 3 3 3 1 3 3 2 3 7
14 7 5 3 5 6 6 5 5 5 5 5 4 6 6 5 6 4 5 5 6 3 0 1 2 2 2 3 2 4 4 2 3 4 3 3 4 5
9 5 5 5 6 7 7 7 4 7 4 4 4 4 5 5 5 3 4 4 6 7 6 3 4 2 1 3 12 7 3 5 3 5 5 6 7 4
3 5 6 6 6 6 6 6 6 5 5 3 3 4 4 7 9 6 4 3 7 7 5 3 4 4 5 6 2 19 5 3 3 5 5 6 7 5
3 5 6 6 6 6 6 5 4 4 3 4 3 4 3 4 5 5 5 6 7 6 3 4 5 6 7 5 3 3 20 5 4 4 3 2 5 14
6 6 6 7 6 6 6 6 6 4 4 3 3 3 4 2 5 5 6 13 14 6 8 7 8 12 2 3 0 1 2 13 9 4 3 3 2 2
6 7 6 6 5 5 6 6 5 4 5 4 4 4 4 4 5 5 6 6 5 4 3 2 3 2 2 5 5 3 2 2 9 17 19 14 4 4
6 6 6 6 6 6 5 6 6 7 5 4 4 6 4 4 4 4 5 6 5 2 2 1 1 2 4 4 6 2 3 3 2 2 3 14 22 26
Wind_Direction
248 246 234 253 243 244 225 187 179 296 295 300 303 298 289 278 257 255 254 279 293 299 305 298 300 304 297 283 280 307 313 318 340 341 23 61 74 114
247 248 255 250 253 245 233 225 199 198 246 237 283 302 316 299 275 257 259 276 277 281 297 285 291 294 296 291 280 293 325 324 330 7 32 22 97 68
272 260 265 254 260 255 244 234 231 195 231 275 247 262 290 285 291 287 274 277 276 277 285 269 271 278 283 282 274 265 286 257 268 21 28 35 40 42
292 289 282 281 274 262 254 252 237 222 215 258 280 259 242 262 259 271 267 268 273 283 281 259 253 265 265 270 263 246 235 207 237 8 6 351 354 7
305 298 289 296 285 277 260 260 254 262 230 233 264 254 256 251 282 273 256 267 276 280 274 264 254 258 264 257 250 236 232 207 194 230 286 282 297 312
315 310 302 291 274 272 269 255 262 257 261 257 261 263 256 265 230 269 283 252 268 273 274 252 252 253 255 251 244 236 229 222 238 251 253 247 251 281
313 306 302 304 306 295 284 272 258 259 264 281 281 272 267 285 259 243 245 266 264 241 265 259 240 247 252 248 245 241 233 219 225 244 253 245 234 237
307 306 301 300 301 322 315 315 305 290 277 271 273 272 276 270 268 250 252 254 281 229 215 267 205 248 236 233 235 235 235 225 219 216 228 229 230 213
282 281 290 289 295 287 300 303 299 295 283 290 279 266 273 270 279 281 263 249 237 245 188 252 199 247 233 240 237 226 214 209 220 227 233 220 206 198
263 268 271 279 275 278 277 284 280 274 272 274 283 286 280 274 267 269 272 273 271 252 197 235 200 240 255 236 241 215 201 207 214 222 227 216 206 188
263 259 263 272 280 285 284 272 277 274 268 278 282 293 295 296 288 286 263 254 262 250 220 200 204 221 239 246 235 227 216 211 212 221 209 197 174 165
270 260 275 287 302 303 299 270 280 279 258 267 275 273 287 292 287 281 273 260 265 265 229 214 175 160 266 239 229 230 203 213 220 213 181 170 166 153
271 266 256 283 299 302 302 293 278 290 287 267 260 269 268 265 261 255 261 264 253 255 254 189 221 168 154 202 298 197 180 206 202 193 192 196 205 182
278 271 271 286 289 297 302 296 301 305 298 282 258 269 272 265 260 246 264 272 280 250 236 247 242 183 151 149 190 106 213 213 156 196 194 226 225 226
290 294 305 306 303 300 292 296 304 300 278 279 276 271 265 263 263 253 244 259 274 259 249 220 218 220 203 189 178 184 145 223 190 184 226 222 218 205
289 289 288 290 293 291 295 291 278 273 268 268 267 269 271 255 253 232 264 274 287 265 203 187 182 165 193 218 155 166 177 184 172 183 181 208 224 225
294 287 272 263 279 279 276 262 264 268 274 276 272 275 276 271 259 227 240 263 272 266 183 265 225 203 180 134 187 207 208 195 195 194 181 224 213 201
308 293 283 274 272 277 279 279 264 278 265 265 268 273 281 281 267 259 236 233 250 261 252 206 178 167 173 242 224 240 211 218 191 197 210 237 257 206
307 293 283 280 279 280 278 276 273 268 265 259 266 283 278 296 300 290 260 266 272 255 235 189 191 184 209 232 265 209 211 200 205 219 220 227 247 251
276 277 280 279 277 279 278 268 263 266 263 266 268 267 264 278 284 273 264 267 264 250 227 201 203 192 211 215 193 248 201 196 188 218 214 231 250 264
284 281 281 285 280 283 283 281 273 260 269 250 256 256 265 246 290 269 275 282 274 261 236 225 216 199 158 84 204 260 265 220 196 176 184 182 219 239
282 280 277 270 265 264 273 277 276 269 271 269 264 251 253 254 269 276 280 289 266 268 301 115 154 138 133 201 231 193 248 282 245 241 241 230 189 237
291 288 286 278 274 274 274 280 277 273 250 252 251 264 249 256 249 257 276 281 284 191 195 219 173 152 203 189 226 205 200 234 226 272 261 257 254 254